TimeEST,TemperatureF,Dew PointF,Humidity,Sea Level PressureIn,VisibilityMPH,Wind Direction,Wind SpeedMPH,Gust SpeedMPH,PrecipitationIn,Events,Conditions,WindDirDegrees,DateUTC
12:08 AM,19.4,17.6,93,30.04,3.0,WNW,16.1,21.9,N/A,Snow,Light Snow,290,2013-02-01 05:08:00
12:20 AM,19.4,12.2,74,30.05,9.0,WNW,17.3,28.8,0.00,,Overcast,290,2013-02-01 05:20:00
12:30 AM,19.4,10.4,68,30.06,7.0,WNW,23.0,35.7,0.00,Snow,Light Snow,300,2013-02-01 05:30:00
12:41 AM,17.6,8.6,68,30.07,9.0,WNW,19.6,32.2,0.00,,Mostly Cloudy,290,2013-02-01 05:41:00
12:54 AM,18.0,7.0,62,30.12,10.0,WNW,21.9,26.5,0.00,,Partly Cloudy,290,2013-02-01 05:54:00
1:54 AM,14.0,6.1,71,30.18,10.0,West,20.7,29.9,N/A,,Overcast,280,2013-02-01 06:54:00
2:54 AM,12.0,3.9,70,30.25,10.0,WNW,13.8,24.2,N/A,,Overcast,300,2013-02-01 07:54:00
3:54 AM,10.0,1.0,67,30.28,10.0,WNW,11.5,-,N/A,,Scattered Clouds,290,2013-02-01 08:54:00
4:54 AM,10.0,-0.0,64,30.30,10.0,WNW,11.5,19.6,N/A,,Clear,290,2013-02-01 09:54:00
5:54 AM,8.1,-0.9,67,30.32,10.0,West,10.4,-,N/A,,Clear,280,2013-02-01 10:54:00
6:54 AM,7.0,-2.0,67,30.36,10.0,WNW,8.1,18.4,N/A,,Clear,290,2013-02-01 11:54:00
7:54 AM,6.1,-2.0,69,30.40,10.0,WNW,8.1,-,N/A,,Clear,290,2013-02-01 12:54:00
8:54 AM,7.0,-2.0,67,30.42,10.0,West,12.7,-,N/A,,Clear,280,2013-02-01 13:54:00
9:54 AM,9.0,-0.9,64,30.45,10.0,West,9.2,18.4,N/A,,Clear,280,2013-02-01 14:54:00
10:54 AM,10.0,1.0,67,30.47,10.0,West,10.4,-,N/A,,Clear,260,2013-02-01 15:54:00
11:54 AM,12.9,3.0,65,30.48,10.0,WSW,10.4,-,N/A,,Clear,250,2013-02-01 16:54:00
12:54 PM,15.1,5.0,64,30.47,10.0,WSW,10.4,-,N/A,,Clear,250,2013-02-01 17:54:00
1:54 PM,16.0,5.0,62,30.45,10.0,WSW,10.4,-,N/A,,Clear,250,2013-02-01 18:54:00
2:54 PM,17.1,6.1,62,30.43,10.0,SW,8.1,-,N/A,,Scattered Clouds,220,2013-02-01 19:54:00
3:54 PM,18.0,7.0,62,30.43,10.0,SW,8.1,-,N/A,,Partly Cloudy,220,2013-02-01 20:54:00
4:54 PM,18.0,7.0,62,30.42,10.0,SW,8.1,-,N/A,,Clear,220,2013-02-01 21:54:00
5:54 PM,17.1,7.0,65,30.43,10.0,SW,6.9,-,N/A,,Clear,220,2013-02-01 22:54:00
6:54 PM,15.1,6.1,68,30.43,10.0,SW,5.8,-,N/A,,Clear,220,2013-02-01 23:54:00
7:54 PM,15.1,6.1,68,30.43,10.0,SSW,3.5,-,N/A,,Clear,200,2013-02-02 00:54:00
8:54 PM,14.0,7.0,74,30.43,10.0,South,5.8,-,N/A,,Clear,190,2013-02-02 01:54:00
9:54 PM,14.0,6.1,71,30.40,10.0,SSE,4.6,-,N/A,,Clear,160,2013-02-02 02:54:00
10:54 PM,12.9,8.1,81,30.40,10.0,South,4.6,-,N/A,,Clear,190,2013-02-02 03:54:00
11:54 PM,15.1,9.0,77,30.38,10.0,South,4.6,-,N/A,,Clear,180,2013-02-02 04:54:00